User: anonymous   Login
Location: Unspecified
(0.0000°N, 0.0000°E)
Time: 12:05:13
(UTC+02:00)
Language:

Cosmos 2237 Rocket - Orbit

View from above orbital plane
View from above orbital plane
View from above satellite
View from above satellite

Ground track
Ground track

The orbit data is extracted from the following two-line orbital elements,

1 22566U 93016B   16206.88679950 -.00000249  00000-0 -10407-3 0  9999
2 22566  71.0077  33.9391 0012752 271.9368  88.0294 14.14931456204977
Epoch (UTC): 24 July 2016 21:16:59
Eccentricity: 0.0012752
inclination: 71.0077°
perigee height: 833 km
apogee height: 852 km
right ascension of ascending node: 33.9391°
argument of perigee: 271.9368°
revolutions per day: 14.14931456
mean anomaly at epoch: 88.0294°
orbit number at epoch: 20497

The dashed part of the orbit path shows where the satellite is in the earth's shadow,  

DLR